Location: Maccacari
(45.1333°N, 11.1333°E)
Time: 01:54:01
(UTC+00:00)

A-11 Canister half - Pass Details

Date: 28 January 2021
Orbit: 1525 x 1684 km, 47.3° (Epoch: 07 March)

Event Time Altitude Azimuth Distance (km) Brightness Sun altitude
Rises 12:59:41 0° 234° (SW) 4,664 12.5 23.5°
Reaches altitude 10° 13:02:43 10° 233° (SW) 3,686 12.2 23.3°
Maximum altitude 13:11:55 70° 151° (SSE) 1,620 9.7 22.6°
Drops below altitude 10° 13:21:21 10° 71° (ENE) 3,771 10.7 21.8°
Sets 13:24:28 0° 69° (ENE) 4,778 11.1 21.5°
